EW3525 Weather Reports


time (UTC)temp
C
wind
direction
speed
KPH
gust
KPH
rain 1hr
cm
rain 24hr
cm
rain mn
cm
humidity
%
barometer
mb
20260510162543 12 32 3.2 17.7 0.00 0.00 0.00 61 1014.6
20260510162043 12 330 4.8 19.3 0.00 0.00 0.00 61 1014.6
20260510161545 12 51 4.8 19.3 0.00 0.00 0.00 61 1014.7
20260510161042 13 317 3.2 12.9 0.00 0.00 0.00 63 1014.7
20260510160542 12 9 1.6 12.9 0.00 0.00 0.00 64 1014.8
20260510160041 12 51 4.8 14.5 0.00 0.00 0.00 63 1014.8
20260510155540 12 57 3.2 14.5 0.00 0.00 0.00 64 1014.9
20260510155040 12 46 4.8 16.1 0.00 0.00 0.00 65 1014.9
20260510154539 12 35 3.2 16.1 0.00 0.00 0.00 64 1015.0
20260510154040 12 24 3.2 12.9 0.00 0.00 0.00 65 1015.1
20260510153545 12 74 3.2 12.9 0.00 0.00 0.00 65 1015.0
20260510153040 12 44 3.2 16.1 0.00 0.00 0.00 66 1015.1
20260510152537 12 32 3.2 16.1 0.00 0.00 0.00 66 1015.2
20260510152036 12 46 3.2 12.9 0.00 0.00 0.00 66 1015.2
20260510151541 12 22 1.6 16.1 0.00 0.00 0.00 66 1015.3
20260510151036 12 13 6.4 16.1 0.00 0.00 0.00 65 1015.3
20260510150537 12 351 4.8 14.5 0.00 0.00 0.00 66 1015.4
20260510150047 12 36 4.8 12.9 0.00 0.00 0.00 66 1015.4
20260510145535 12 22 3.2 14.5 0.00 0.00 0.00 68 1015.5
20260510145035 12 336 3.2 14.5 0.00 0.00 0.00 67 1015.5
20260510144536 12 343 4.8 17.7 0.00 0.00 0.00 67 1015.6
20260510144032 12 42 3.2 17.7 0.00 0.00 0.00 66 1015.7
20260510143533 12 53 1.6 12.9 0.00 0.00 0.00 69 1015.8
20260510143034 12 336 3.2 14.5 0.00 0.00 0.00 68 1015.7
20260510142531 12 19 3.2 14.5 0.00 0.00 0.00 67 1015.7
20260510142031 12 5 3.2 17.7 0.00 0.00 0.00 67 1015.8
20260510141531 12 360 4.8 17.7 0.00 0.00 0.00 66 1015.7
20260510141031 12 53 4.8 16.1 0.00 0.00 0.00 67 1015.8
20260510140530 12 19 1.6 14.5 0.00 0.00 0.00 68 1015.8
20260510140030 12 355 3.2 14.5 0.00 0.00 0.00 67 1015.9
20260510135530 12 38 3.2 14.5 0.00 0.00 0.00 68 1015.9
20260510135030 12 53 3.2 12.9 0.00 0.00 0.00 69 1015.9
20260510134529 12 26 3.2 17.7 0.00 0.00 0.00 68 1015.9
20260510134028 12 17 4.8 17.7 0.00 0.00 0.00 68 1016.0
20260510133528 12 38 3.2 17.7 0.00 0.00 0.00 69 1016.0
20260510133028 12 19 4.8 17.7 0.00 0.00 0.00 68 1016.0
20260510132529 12 27 3.2 17.7 0.00 0.00 0.00 68 1016.0
20260510132029 12 15 3.2 16.1 0.00 0.00 0.00 69 1016.0
20260510131527 12 103 8.0 16.1 0.00 0.00 0.00 67 1016.0
20260510131027 12 34 3.2 16.1 0.00 0.00 0.00 68 1016.0
20260510130530 12 117 1.6 9.7 0.00 0.00 0.00 69 1016.0
20260510130026 12 25 1.6 16.1 0.00 0.00 0.00 70 1016.2
20260510125524 12 20 3.2 16.1 0.00 0.00 0.00 70 1016.2
20260510125024 12 63 4.8 16.1 0.00 0.00 0.00 70 1016.3
20260510124528 12 34 3.2 17.7 0.00 0.00 0.00 70 1016.3
20260510124028 12 67 3.2 19.3 0.00 0.00 0.00 70 1016.3
20260510123524 12 60 4.8 19.3 0.00 0.00 0.00 69 1016.4
20260510123025 12 76 3.2 16.1 0.00 0.00 0.00 67 1016.3
20260510122523 13 288 6.4 17.7 0.00 0.00 0.00 68 1016.3
20260510122022 13 360 3.2 17.7 0.00 0.00 0.00 68 1016.4
20260510121523 12 36 3.2 14.5 0.00 0.00 0.00 69 1016.4
20260510121024 12 29 3.2 19.3 0.00 0.00 0.00 69 1016.4
20260510120527 12 38 4.8 19.3 0.00 0.00 0.00 69 1016.4
20260510120026 12 350 6.4 22.5 0.00 0.00 0.00 68 1016.4
20260510115524 12 355 3.2 16.1 0.00 0.00 0.00 69 1016.4
20260510115025 12 34 3.2 24.1 0.00 0.00 0.00 67 1016.4
20260510114527 13 15 4.8 16.1 0.00 0.00 0.00 67 1016.4
20260510114021 13 14 3.2 16.1 0.00 0.00 0.00 66 1016.5
20260510113519 13 12 3.2 20.9 0.00 0.00 0.00 68 1016.5
20260510113020 13 9 3.2 20.9 0.00 0.00 0.00 66 1016.6
20260510112520 14 30 3.2 14.5 0.00 0.00 0.00 66 1016.5
20260510112018 14 12 3.2 14.5 0.00 0.00 0.00 67 1016.5
20260510111517 13 16 3.2 16.1 0.00 0.00 0.00 67 1016.7
20260510111018 13 10 6.4 17.7 0.00 0.00 0.00 66 1016.7
20260510110517 13 44 6.4 17.7 0.00 0.00 0.00 65 1016.8
20260510110017 13 87 4.8 16.1 0.00 0.00 0.00 66 1016.8
20260510105517 13 340 4.8 17.7 0.00 0.00 0.00 65 1016.9
20260510105016 13 338 4.8 17.7 0.00 0.00 0.00 66 1016.9
20260510104515 13 15 3.2 16.1 0.00 0.00 0.00 66 1016.8
20260510104015 14 41 8.0 16.1 0.00 0.00 0.00 63 1016.9
20260510103515 14 355 4.8 17.7 0.00 0.00 0.00 66 1016.9
20260510103014 13 51 6.4 17.7 0.00 0.00 0.00 65 1016.8
20260510102514 13 280 4.8 14.5 0.00 0.00 0.00 68 1016.8
20260510102014 13 346 3.2 17.7 0.00 0.00 0.00 67 1016.9
20260510101513 14 83 3.2 19.3 0.00 0.00 0.00 64 1016.8
20260510101013 15 32 4.8 19.3 0.00 0.00 0.00 62 1016.9
20260510100512 14 241 3.2 19.3 0.00 0.00 0.00 65 1016.8
20260510100010 14 84 6.4 19.3 0.00 0.00 0.00 64 1016.9
20260510095514 13 350 6.4 25.7 0.00 0.00 0.00 66 1017.0
20260510095012 12 33 4.8 22.5 0.00 0.00 0.00 67 1016.9
20260510094522 12 53 4.8 22.5 0.00 0.00 0.00 66 1017.0
20260510094007 12 9 6.4 20.9 0.00 0.00 0.00 66 1016.9
20260510093506 13 122 8.0 20.9 0.00 0.00 0.00 65 1017.1
20260510093009 12 84 6.4 20.9 0.00 0.00 0.00 68 1017.1
20260510092504 12 128 6.4 22.5 0.00 0.00 0.00 68 1017.2
20260510092003 12 36 8.0 22.5 0.00 0.00 0.00 67 1017.2
20260510091504 12 203 6.4 17.7 0.00 0.00 0.00 69 1017.3
20260510091004 12 35 3.2 20.9 0.00 0.00 0.00 71 1017.4
20260510090503 12 34 6.4 20.9 0.00 0.00 0.00 70 1017.3
20260510090002 12 42 6.4 24.1 0.00 0.00 0.00 70 1017.3
20260510085502 11 71 6.4 24.1 0.00 0.00 0.00 72 1017.4
20260510085102 12 61 6.4 20.9 0.00 0.00 0.00 70 1017.5
20260510084600 12 341 6.4 20.9 0.00 0.00 0.00 74 1017.4
20260510084058 11 65 4.8 19.3 0.00 0.00 0.00 74 1017.5
20260510083557 11 333 3.2 16.1 0.00 0.00 0.00 75 1017.5
20260510083106 11 49 6.4 16.1 0.00 0.00 0.00 75 1017.5
20260510082554 11 62 4.8 16.1 0.00 0.00 0.00 75 1017.6
20260510082053 11 44 3.2 20.9 0.00 0.00 0.00 76 1017.6
20260510081552 10 14 4.8 20.9 0.00 0.00 0.00 76 1017.6
20260510081050 10 49 6.4 14.5 0.00 0.00 0.00 77 1017.6
20260510080552 10 5 4.8 17.7 0.00 0.00 0.00 78 1017.6
20260510080051 10 360 6.4 17.7 0.00 0.00 0.00 77 1017.6
20260510075550 10 32 4.8 17.7 0.00 0.00 0.00 78 1017.6
20260510075046 10 197 4.8 16.1 0.00 0.00 0.00 78 1017.7
20260510074548 10 31 3.2 14.5 0.00 0.00 0.00 79 1017.7
20260510074047 10 45 3.2 14.5 0.00 0.00 0.00 79 1017.7
20260510073545 10 31 4.8 19.3 0.00 0.00 0.00 79 1017.7
20260510073053 10 73 4.8 19.3 0.00 0.00 0.00 79 1017.7
20260510072544 10 33 4.8 19.3 0.00 0.00 0.00 79 1017.8
20260510072046 9 65 6.4 17.7 0.00 0.00 0.00 79 1017.8
20260510071544 9 59 9.7 17.7 0.00 0.00 0.00 80 1017.7
20260510071042 9 318 3.2 17.7 0.00 0.00 0.00 80 1017.7
20260510070541 9 338 6.4 17.7 0.00 0.00 0.00 80 1017.6
20260510070041 9 27 4.8 14.5 0.00 0.00 0.00 80 1017.6
20260510065542 9 20 3.2 16.1 0.00 0.00 0.00 81 1017.6
20260510065036 9 61 3.2 20.9 0.00 0.00 0.00 81 1017.5
20260510064534 9 19 4.8 14.5 0.00 0.00 0.00 82 1017.6
20260510064033 9 346 3.2 14.5 0.00 0.00 0.00 82 1017.5
20260510063532 9 51 4.8 14.5 0.00 0.00 0.00 82 1017.5
20260510063031 9 19 1.6 12.9 0.00 0.00 0.00 82 1017.4
20260510062530 9 13 4.8 12.9 0.00 0.00 0.00 82 1017.4
20260510062029 9 36 3.2 11.3 0.00 0.00 0.00 83 1017.4
20260510061533 9 31 1.6 12.9 0.00 0.00 0.00 83 1017.4
20260510061029 8 40 4.8 12.9 0.00 0.00 0.00 83 1017.3
20260510060530 8 355 3.2 12.9 0.00 0.00 0.00 83 1017.4
20260510060038 8 343 3.2 16.1 0.00 0.00 0.00 83 1017.3
20260510055527 8 78 3.2 16.1 0.00 0.00 0.00 83 1017.3
20260510055028 8 48 3.2 9.7 0.00 0.00 0.00 83 1017.3
20260510054534 8 5 3.2 12.9 0.00 0.00 0.00 83 1017.3
20260510054028 8 12 3.2 12.9 0.00 0.00 0.00 84 1017.4
20260510053523 8 360 1.6 12.9 0.00 0.00 0.00 84 1017.3
20260510053023 8 9 3.2 9.7 0.00 0.00 0.00 84 1017.3
20260510052522 8 28 1.6 14.5 0.00 0.00 0.00 84 1017.4
20260510052024 8 360 1.6 11.3 0.00 0.00 0.00 84 1017.4
20260510051521 8 74 1.6 11.3 0.00 0.00 0.00 84 1017.3
20260510051021 8 327 0.0 6.4 0.00 0.00 0.00 84 1017.4
20260510050519 8 13 1.6 8.0 0.00 0.00 0.00 84 1017.3
20260510050019 8 76 1.6 8.0 0.00 0.00 0.00 84 1017.3
20260510045521 8 44 1.6 8.0 0.00 0.00 0.00 84 1017.3
20260510045018 8 120 0.0 8.0 0.00 0.00 0.00 83 1017.3
20260510044517 8 65 1.6 8.0 0.00 0.00 0.00 83 1017.3
20260510044018 8 48 1.6 6.4 0.00 0.00 0.00 83 1017.3
20260510043516 8 292 1.6 6.4 0.00 0.00 0.00 83 1017.3
20260510043016 8 23 1.6 8.0 0.00 0.00 0.00 83 1017.3
20260510042517 8 351 0.0 8.0 0.00 0.00 0.00 83 1017.3
20260510042015 8 42 0.0 4.8 0.00 0.00 0.00 83 1017.3
20260510041514 8 86 1.6 6.4 0.00 0.00 0.00 83 1017.3
20260510041014 8 11 1.6 6.4 0.00 0.00 0.00 83 1017.4
20260510040513 8 67 1.6 6.4 0.00 0.00 0.00 82 1017.4
20260510040013 8 13 1.6 6.4 0.00 0.00 0.00 82 1017.4
20260510035515 8 21 1.6 6.4 0.00 0.00 0.00 82 1017.5
20260510035012 8 42 1.6 6.4 0.00 0.00 0.00 82 1017.5
20260510034520 8 36 1.6 6.4 0.00 0.00 0.00 82 1017.5
20260510034012 8 38 0.0 6.4 0.00 0.00 0.00 81 1017.6
20260510033515 8 23 1.6 6.4 0.00 0.00 0.00 81 1017.6
20260510033012 8 45 0.0 8.0 0.00 0.00 0.00 81 1017.6
20260510032510 8 331 1.6 8.0 0.00 0.00 0.00 81 1017.7
20260510032010 8 355 3.2 8.0 0.00 0.00 0.00 81 1017.7
20260510031511 8 19 1.6 9.7 0.00 0.00 0.00 81 1017.8
20260510031009 8 14 1.6 9.7 0.00 0.00 0.00 82 1017.8
20260510030512 8 47 1.6 8.0 0.00 0.00 0.00 82 1017.7
20260510030015 8 128 0.0 8.0 0.00 0.00 0.00 82 1017.7
20260510025508 8 36 1.6 8.0 0.00 0.00 0.00 82 1017.7
20260510025009 8 42 3.2 8.0 0.00 0.00 0.00 82 1017.7
20260510024505 8 40 1.6 4.8 0.00 0.00 0.00 82 1017.7
20260510024003 8 30 0.0 6.4 0.00 0.00 0.00 83 1017.7
20260510023503 8 47 0.0 9.7 0.00 0.00 0.00 83 1017.7
20260510023003 8 5 0.0 4.8 0.00 0.00 0.00 83 1017.8
20260510022503 8 5 0.0 4.8 0.00 0.00 0.00 83 1017.7
20260510022003 9 45 0.0 6.4 0.00 0.00 0.00 83 1017.6
20260510021501 9 29 1.6 4.8 0.00 0.00 0.00 83 1017.6
20260510021001 9 40 0.0 12.9 0.00 0.00 0.00 82 1017.7
20260510020501 9 46 1.6 12.9 0.00 0.00 0.00 82 1017.7
20260510020002 9 21 0.0 12.9 0.00 0.00 0.00 82 1017.6
20260510015600 9 55 1.6 12.9 0.00 0.00 0.00 82 1017.6
20260510015058 9 46 1.6 8.0 0.00 0.00 0.00 81 1017.6
20260510014601 9 72 1.6 8.0 0.00 0.00 0.00 81 1017.6
20260510014058 9 333 1.6 6.4 0.00 0.00 0.00 80 1017.7
20260510013558 9 313 1.6 8.0 0.00 0.00 0.00 79 1017.7
20260510013057 9 44 1.6 8.0 0.00 0.00 0.00 79 1017.7
20260510012556 9 29 0.0 4.8 0.00 0.00 0.00 78 1017.8
20260510012055 9 27 0.0 9.7 0.00 0.00 0.00 77 1017.9
20260510011555 9 82 1.6 9.7 0.00 0.00 0.00 76 1017.8
20260510011055 9 360 0.0 8.0 0.00 0.00 0.00 75 1017.9
20260510010553 9 17 1.6 6.4 0.00 0.00 0.00 73 1017.7
20260510010052 9 360 1.6 6.4 0.00 0.00 0.00 73 1017.7
20260510005553 9 17 1.6 6.4 0.00 0.00 0.00 71 1017.7
20260510005054 10 43 0.0 8.0 0.00 0.00 0.00 69 1017.7
20260510004552 10 23 1.6 9.7 0.00 0.00 0.00 68 1017.7
20260510004051 10 350 3.2 9.7 0.00 0.00 0.00 68 1017.7
20260510003551 10 36 0.0 6.4 0.00 0.00 0.00 67 1017.8
20260510003051 10 61 0.0 9.7 0.00 0.00 0.00 67 1017.8
20260510002550 10 61 0.0 9.7 0.00 0.00 0.00 67 1017.8
20260510002052 10 45 1.6 9.7 0.00 0.00 0.00 67 1017.9
20260510001549 10 47 0.0 6.4 0.00 0.00 0.00 68 1017.8
20260510001049 10 342 0.0 8.0 0.00 0.00 0.00 68 1017.8
20260510000548 10 30 0.0 8.0 0.00 0.00 0.00 68 1017.7
20260510000048 9 43 0.0 4.8 0.00 0.00 0.00 69 1017.6
20260509235547 10 30 0.0 4.8 0.00 0.00 0.00 69 1017.5
20260509235047 10 62 0.0 6.4 0.00 0.00 0.00 68 1017.6
20260509234546 10 31 1.6 6.4 0.00 0.00 0.00 68 1017.7
20260509234044 9 71 0.0 6.4 0.00 0.00 0.00 69 1017.6
20260509233549 9 50 0.0 3.2 0.00 0.00 0.00 69 1017.6
20260509233044 9 17 0.0 3.2 0.00 0.00 0.00 69 1017.6
20260509232547 9 11 0.0 3.2 0.00 0.00 0.00 71 1017.5
20260509232042 9 48 0.0 3.2 0.00 0.00 0.00 71 1017.4
20260509231545 9 48 0.0 3.2 0.00 0.00 0.00 71 1017.5
20260509231044 9 48 0.0 3.2 0.00 0.00 0.00 71 1017.4
20260509230541 9 9 0.0 3.2 0.00 0.00 0.00 71 1017.4
20260509230040 8 40 0.0 3.2 0.00 0.00 0.00 72 1017.4
20260509225539 8 31 0.0 3.2 0.00 0.00 0.00 73 1017.5
20260509225040 8 30 0.0 3.2 0.00 0.00 0.00 72 1017.4
20260509224539 9 30 0.0 0.0 0.00 0.00 0.00 72 1017.3
20260509224041 9 30 0.0 0.0 0.00 0.00 0.00 71 1017.3
20260509223539 9 30 0.0 0.0 0.00 0.00 0.00 70 1017.3
20260509223039 10 30 0.0 0.0 0.00 0.00 0.00 69 1017.3
20260509222539 10 30 0.0 3.2 0.00 0.00 0.00 69 1017.3
20260509222038 10 30 0.0 3.2 0.00 0.00 0.00 68 1017.2
20260509221538 10 30 0.0 3.2 0.00 0.00 0.00 68 1017.2
20260509221038 10 24 0.0 3.2 0.00 0.00 0.00 68 1017.3
20260509220537 10 26 0.0 0.0 0.00 0.00 0.00 69 1017.2
20260509220039 10 26 0.0 3.2 0.00 0.00 0.00 68 1017.3
20260509215537 10 26 0.0 3.2 0.00 0.00 0.00 67 1017.3
20260509215037 10 26 0.0 3.2 0.00 0.00 0.00 66 1017.3
20260509214536 10 344 0.0 3.2 0.00 0.00 0.00 65 1017.3
20260509214036 10 344 0.0 3.2 0.00 0.00 0.00 66 1017.5
20260509213536 10 15 0.0 3.2 0.00 0.00 0.00 65 1017.5
20260509213036 11 15 0.0 3.2 0.00 0.00 0.00 65 1017.5
20260509212535 11 22 0.0 3.2 0.00 0.00 0.00 63 1017.3
20260509212035 11 22 0.0 3.2 0.00 0.00 0.00 62 1017.4
20260509211536 11 22 0.0 3.2 0.00 0.00 0.00 61 1017.3
20260509211037 11 32 0.0 3.2 0.00 0.00 0.00 61 1017.2
20260509210535 12 32 0.0 3.2 0.00 0.00 0.00 58 1017.0
20260509210040 12 32 0.0 3.2 0.00 0.00 0.00 58 1017.0
20260509205535 12 30 0.0 3.2 0.00 0.00 0.00 57 1016.9
20260509205034 12 30 0.0 3.2 0.00 0.00 0.00 56 1016.9
20260509204540 13 21 0.0 3.2 0.00 0.00 0.00 55 1016.9
20260509204036 13 26 0.0 3.2 0.00 0.00 0.00 54 1016.9
20260509203534 13 22 0.0 6.4 0.00 0.00 0.00 53 1016.7
20260509203040 13 38 1.6 6.4 0.00 0.00 0.00 52 1016.7
20260509202535 14 12 0.0 4.8 0.00 0.00 0.00 52 1016.6
20260509202035 14 355 0.0 4.8 0.00 0.00 0.00 51 1016.6
20260509201533 14 19 0.0 6.4 0.00 0.00 0.00 51 1016.6
20260509201033 15 111 0.0 6.4 0.00 0.00 0.00 50 1016.5
20260509200533 15 305 0.0 6.4 0.00 0.00 0.00 49 1016.5
20260509200033 15 344 0.0 6.4 0.00 0.00 0.00 50 1016.5
20260509195532 15 221 0.0 6.4 0.00 0.00 0.00 50 1016.5
20260509195033 15 86 0.0 6.4 0.00 0.00 0.00 50 1016.5
20260509194532 15 326 0.0 4.8 0.00 0.00 0.00 51 1016.5
20260509194032 15 350 0.0 4.8 0.00 0.00 0.00 50 1016.3
20260509193533 15 12 0.0 3.2 0.00 0.00 0.00 50 1016.2
20260509193037 15 15 0.0 3.2 0.00 0.00 0.00 50 1016.2
20260509192535 15 360 0.0 3.2 0.00 0.00 0.00 50 1016.2
20260509192032 16 351 0.0 3.2 0.00 0.00 0.00 51 1016.1
20260509191538 16 277 0.0 3.2 0.00 0.00 0.00 50 1016.1
20260509191032 16 350 0.0 3.2 0.00 0.00 0.00 50 1016.1
20260509190531 16 26 0.0 3.2 0.00 0.00 0.00 48 1016.0
20260509190031 16 26 0.0 6.4 0.00 0.00 0.00 48 1015.9
20260509185531 16 342 1.6 6.4 0.00 0.00 0.00 47 1015.9
20260509185030 17 5 0.0 4.8 0.00 0.00 0.00 47 1015.9
20260509184536 17 294 0.0 6.4 0.00 0.00 0.00 46 1015.8
20260509184029 17 182 0.0 6.4 0.00 0.00 0.00 46 1015.9
20260509183530 17 294 0.0 9.7 0.00 0.00 0.00 45 1015.8
20260509183032 17 217 0.0 9.7 0.00 0.00 0.00 45 1015.8
20260509182532 17 330 1.6 11.3 0.00 0.00 0.00 45 1015.7
20260509182029 17 214 0.0 6.4 0.00 0.00 0.00 45 1015.6
20260509181533 18 216 0.0 6.4 0.00 0.00 0.00 44 1015.5
20260509181029 18 9 0.0 6.4 0.00 0.00 0.00 46 1015.5
20260509180528 18 331 0.0 6.4 0.00 0.00 0.00 45 1015.5
20260509180028 18 5 1.6 6.4 0.00 0.00 0.00 44 1015.5
20260509175532 18 32 1.6 9.7 0.00 0.00 0.00 46 1015.5
20260509175029 18 46 3.2 9.7 0.00 0.00 0.00 44 1015.4
20260509174528 18 339 1.6 8.0 0.00 0.00 0.00 44 1015.4
20260509174028 18 24 1.6 8.0 0.00 0.00 0.00 44 1015.4
20260509173527 19 343 0.0 8.0 0.00 0.00 0.00 45 1015.3
20260509173028 19 16 1.6 8.0 0.00 0.00 0.00 46 1015.2
20260509172527 18 360 0.0 6.4 0.00 0.00 0.00 45 1015.2
20260509172027 19 23 0.0 8.0 0.00 0.00 0.00 46 1015.1
20260509171526 19 27 3.2 8.0 0.00 0.00 0.00 44 1015.2
20260509171026 19 12 1.6 6.4 0.00 0.00 0.00 45 1015.3
20260509170525 19 350 1.6 9.7 0.00 0.00 0.00 44 1015.4
20260509170031 19 360 3.2 12.9 0.00 0.00 0.00 44 1015.4
20260509165524 19 324 3.2 12.9 0.00 0.00 0.00 43 1015.4
20260509165024 20 42 1.6 4.8 0.00 0.00 0.00 43 1015.4
20260509164534 20 84 0.0 8.0 0.00 0.00 0.00 44 1015.4
20260509164123 20 30 1.6 8.0 0.00 0.00 0.00 44 1015.4
20260509163524 20 38 1.6 8.0 0.00 0.00 0.00 43 1015.4
20260509163024 20 15 1.6 12.9 0.00 0.00 0.00 44 1015.3